Theta_e
328 328 327 326 324 323 323 323 323 323 323 323 323 323 322 321 321 321 321 321 321 321 321 322 323 323 323 324 325 326 326 327 328 329 329 329 329 330 330 329 329 329 329 330 331 329 329 329 327 327 327 327 326 326 326 326 327 328 328 328 327 327 327
327 327 326 324 323 323 324 323 322 322 322 322 322 322 320 319 319 319 320 320 320 319 318 319 320 321 323 324 324 324 325 325 326 326 328 329 330 330 329 329 329 329 328 329 330 330 329 327 326 327 327 326 325 324 323 323 324 324 324 324 324 326 327
327 326 324 323 323 323 323 322 322 321 321 321 321 321 319 318 318 318 319 320 320 319 318 319 321 321 323 323 323 324 323 323 324 325 326 327 328 329 329 328 328 328 329 329 329 330 330 329 327 328 328 326 325 324 322 321 320 320 320 321 321 322 324
327 326 324 324 323 323 323 322 322 320 320 321 320 319 318 318 317 318 318 318 319 319 319 319 320 321 321 321 322 322 322 322 323 324 324 325 325 325 325 325 325 326 326 326 328 329 329 329 327 327 326 325 324 323 321 319 318 317 317 318 318 319 320
327 326 324 324 323 323 322 321 320 319 320 320 319 318 319 318 317 318 318 317 317 317 318 318 319 320 320 320 320 320 320 321 321 322 322 323 322 322 322 321 320 321 322 322 324 325 327 327 326 326 323 322 322 321 319 318 317 316 316 316 316 317 318
327 326 325 324 323 322 321 320 318 318 319 319 319 318 319 319 318 318 317 316 315 315 315 316 317 318 318 318 318 318 319 320 320 320 320 321 320 320 319 319 318 318 318 319 320 322 324 325 325 324 322 321 321 320 318 317 316 315 315 315 315 316 316
327 326 324 323 323 321 321 319 318 317 318 319 319 319 318 319 318 318 317 316 316 315 314 315 315 317 317 316 316 318 318 319 318 318 319 319 319 319 318 317 316 316 316 317 317 319 321 322 322 322 321 320 320 319 318 317 316 315 314 314 314 315 315
328 327 324 324 324 322 321 319 317 318 318 318 319 319 319 318 318 319 318 318 318 317 316 315 315 315 316 315 314 316 317 316 316 316 316 317 317 317 317 316 315 315 314 314 314 315 317 320 321 321 321 320 319 319 318 316 315 314 312 312 311 313 313
326 326 325 323 321 320 321 320 319 318 318 319 318 319 319 319 319 319 318 318 319 319 317 316 315 315 316 315 314 315 315 314 314 314 314 314 316 316 316 315 314 314 314 314 313 313 315 317 319 319 319 319 318 317 317 316 315 314 312 311 309 309 310
321 322 321 317 314 314 317 319 318 318 318 318 318 319 319 319 319 319 318 318 319 319 319 317 316 316 316 315 315 315 315 314 314 313 313 313 314 314 315 315 314 313 314 313 313 314 314 315 317 318 318 317 317 317 316 316 315 314 311 310 308 307 307
321 323 321 317 315 314 314 313 313 316 318 317 318 319 319 319 319 319 318 319 319 319 320 319 318 318 317 316 315 315 316 316 315 314 314 314 314 314 314 314 314 313 314 314 314 314 313 313 314 315 316 316 316 317 316 316 316 314 311 309 308 306 306
323 325 322 317 314 314 314 314 313 316 319 318 317 318 319 319 319 319 320 319 319 319 320 319 319 319 319 318 317 316 316 317 316 315 315 315 315 314 314 314 314 313 314 314 314 314 314 313 312 312 312 314 315 316 316 316 316 314 311 309 307 306 305
325 326 323 317 315 315 317 318 317 318 320 319 319 319 319 319 319 320 320 320 320 320 320 320 319 319 319 319 319 318 318 318 317 316 315 314 314 315 314 314 313 313 314 314 313 313 312 312 313 312 311 313 314 315 315 315 315 313 311 309 307 306 306
326 326 323 317 318 320 320 321 320 319 319 320 320 320 320 320 320 320 320 320 320 320 320 320 320 320 320 320 319 319 319 319 318 317 317 316 315 315 314 313 313 313 314 313 312 312 312 312 312 311 311 312 313 313 314 314 313 311 309 308 307 307 307
326 326 324 321 322 323 322 322 322 320 318 318 319 319 320 320 320 321 321 321 321 321 321 321 321 321 321 321 320 320 319 319 319 319 319 318 317 316 315 314 313 313 312 312 312 312 311 311 311 310 310 310 311 312 312 312 311 310 309 309 309 308 308
326 326 325 324 324 323 323 323 322 321 320 320 320 320 319 320 321 321 321 321 321 321 321 322 322 322 322 321 321 321 321 320 320 320 320 319 319 318 317 316 315 314 314 313 313 312 312 311 311 310 309 309 310 310 311 312 312 312 312 311 311 310 310
326 326 326 326 325 324 324 323 322 322 321 321 321 321 321 321 322 322 322 322 321 322 321 322 322 322 322 322 321 321 321 321 321 321 320 320 320 319 319 318 317 316 316 316 315 313 312 312 311 310 310 311 312 313 314 314 314 314 314 313 312 311 310
326 326 326 326 326 325 325 323 323 323 322 322 322 322 323 323 323 322 323 322 322 322 322 322 322 322 323 322 322 322 322 321 322 322 321 321 321 320 320 319 319 318 317 317 316 315 314 313 312 311 311 311 313 314 314 315 315 315 315 314 313 311 311
327 327 326 326 327 326 325 324 324 324 323 322 322 323 323 323 323 323 323 322 322 322 322 322 322 322 322 322 323 323 322 322 322 322 322 321 321 321 321 320 320 319 319 318 318 317 316 315 313 312 311 311 312 314 315 315 315 315 316 315 314 312 312
326 325 324 325 326 326 326 325 325 324 323 323 324 324 324 323 323 323 323 322 322 322 322 322 322 322 322 323 323 323 323 323 322 322 322 321 321 322 322 321 321 320 320 320 319 318 318 316 315 314 313 312 311 311 314 315 315 315 316 315 315 314 313
322 321 323 324 325 325 326 325 324 324 324 324 324 324 324 323 323 323 323 322 322 322 322 322 323 323 323 323 323 323 323 323 323 323 322 322 322 321 321 321 321 321 321 320 319 319 318 317 316 315 314 313 311 311 312 313 313 314 315 315 315 314 313
321 321 324 324 323 324 325 325 325 324 324 325 324 324 324 323 324 324 323 323 323 323 323 323 322 322 322 323 323 323 323 324 323 323 323 323 322 320 320 319 320 321 320 320 319 318 318 317 317 316 315 314 312 311 311 312 312 313 314 314 314 314 313
322 323 323 323 323 324 325 325 324 323 322 323 322 321 323 323 323 323 323 323 323 323 323 322 320 319 320 321 321 322 322 322 323 323 323 323 322 321 320 320 320 319 319 318 318 318 318 317 315 315 315 314 312 311 310 311 311 312 313 314 314 313 313
323 323 323 323 323 324 324 323 322 320 321 322 320 320 321 323 322 322 322 322 323 323 322 320 319 319 319 319 319 320 321 320 321 321 321 321 321 321 321 320 320 319 318 318 318 318 317 316 315 315 314 313 311 310 310 311 311 311 312 312 312 312 312
322 322 323 323 323 323 323 323 322 322 323 322 321 321 322 322 322 322 323 323 322 321 318 315 315 314 315 315 315 317 319 319 319 319 319 318 318 319 319 318 318 319 319 317 317 318 317 316 316 315 315 314 312 311 310 310 310 311 311 311 311 311 310
322 322 322 322 321 321 322 322 322 322 322 321 321 322 322 322 321 321 321 320 319 316 311 309 310 309 309 310 309 312 316 317 318 319 319 318 318 317 317 316 316 317 317 316 316 317 317 317 315 315 315 314 312 310 308 306 306 307 308 309 310 310 309
320 320 320 320 320 321 322 322 321 321 321 320 320 321 321 320 319 318 317 316 316 313 309 307 308 307 307 307 306 308 311 312 314 317 318 318 318 318 317 317 316 315 316 316 316 316 316 316 314 313 312 311 309 308 306 304 303 304 305 307 308 309 307
316 317 317 317 318 319 320 320 319 319 319 319 318 317 317 316 315 315 314 313 313 311 307 306 307 306 306 305 304 307 310 311 314 316 317 318 318 317 317 317 316 316 316 315 314 314 315 315 313 311 310 308 307 306 304 303 303 304 304 305 306 306 305
313 314 314 314 315 315 316 316 316 315 315 315 315 314 314 313 312 312 312 311 311 309 306 306 307 306 305 304 305 309 312 313 315 316 316 317 316 316 317 316 315 315 314 313 312 312 312 313 312 311 310 308 307 305 303 302 303 303 303 303 304 304 303
311 311 311 311 312 313 313 313 312 313 313 312 312 312 312 312 311 311 311 311 312 310 308 307 307 306 305 305 307 311 312 311 313 313 314 315 314 313 314 313 313 314 311 309 309 309 309 311 311 311 310 309 307 305 303 302 302 303 303 303 302 301 300
310 310 310 311 311 312 312 312 311 311 311 311 311 311 311 311 311 311 312 312 311 311 309 307 307 307 305 305 307 311 310 310 311 311 312 312 311 310 311 310 310 310 309 307 307 307 307 309 310 309 309 308 308 307 304 302 302 302 301 300 299 298 298
309 309 309 310 310 310 311 312 311 311 311 311 311 310 310 310 311 311 312 310 309 310 310 308 307 307 306 305 306 309 310 310 310 310 310 311 310 308 308 308 308 307 307 307 306 306 306 307 308 308 308 308 308 307 304 301 300 299 298 298 297 298 298
309 308 309 309 309 309 312 311 310 311 311 310 310 310 309 310 310 310 311 309 309 310 311 310 307 307 307 305 305 306 309 309 309 309 309 309 309 307 305 304 305 305 305 305 304 304 304 305 306 306 306 306 306 304 300 299 298 297 297 297 298 297 298
309 309 309 309 310 310 311 311 310 310 310 309 309 309 309 309 309 309 310 310 310 311 311 310 308 306 306 306 305 305 307 309 308 308 308 308 308 307 305 302 301 302 302 302 302 302 302 303 303 303 302 302 301 299 298 298 297 296 296 297 297 297 298
309 310 309 309 310 309 309 309 309 308 308 308 309 309 308 308 308 308 309 309 310 310 308 307 307 305 305 306 305 305 306 308 307 307 308 307 307 307 305 302 301 300 300 301 301 301 301 301 300 300 299 298 297 296 295 297 297 297 297 297 297 297 297
308 309 310 310 309 309 309 308 308 308 308 308 308 308 308 307 307 308 308 308 309 309 307 305 305 305 304 304 305 305 306 306 306 306 308 307 306 306 304 301 301 300 299 299 299 299 299 298 298 297 297 295 294 293 294 296 297 296 297 297 296 297 297
306 307 308 309 309 308 308 308 308 308 308 308 308 308 308 307 307 308 307 307 308 308 307 306 304 303 303 303 304 305 306 306 306 307 307 307 306 305 303 301 300 299 298 298 297 297 297 296 296 295 294 293 293 293 294 296 296 296 296 296 296 297 297
Wind_Speed
9 9 9 8 8 8 8 8 7 7 6 6 6 6 6 7 6 6 6 5 5 4 4 4 5 4 4 5 5 5 4 4 4 2 1 0 1 2 3 2 2 2 2 3 4 3 1 3 2 4 5 7 9 7 7 7 6 6 6 5 5 4 4
10 10 10 9 9 9 8 8 7 7 6 6 7 7 7 7 7 7 7 7 6 6 5 6 6 5 5 5 6 6 6 5 5 5 4 4 2 1 2 2 2 2 2 1 2 3 2 3 2 3 5 6 8 8 7 7 7 7 7 7 7 6 6
12 11 10 10 10 9 9 8 7 6 7 7 7 7 7 7 7 8 8 8 8 7 7 7 7 6 6 7 7 7 6 6 5 6 6 5 5 3 2 1 1 1 2 1 1 2 3 3 3 4 6 5 6 8 8 8 9 9 9 10 10 9 8
13 13 12 12 11 10 10 9 7 7 8 8 7 7 7 7 8 9 9 9 8 8 8 7 7 7 7 6 6 6 6 5 5 5 6 6 5 5 4 3 2 2 2 2 2 0 1 2 3 4 6 7 8 8 8 8 9 9 11 11 11 11 11
14 14 14 13 12 11 10 9 9 9 9 9 8 7 7 7 8 9 9 9 9 9 8 8 7 7 6 6 6 6 6 6 6 6 6 6 5 5 5 5 4 4 4 4 4 3 1 1 3 4 6 8 8 9 10 9 9 10 11 11 12 12 12
13 13 14 14 13 11 10 10 10 10 10 9 8 7 7 7 8 8 9 9 10 9 9 8 8 7 7 7 7 7 7 7 7 6 6 6 6 5 5 5 5 5 5 5 5 4 2 2 4 4 6 7 7 8 9 8 9 10 11 11 11 11 11
12 12 13 14 13 12 11 11 11 11 11 10 9 8 7 7 8 8 9 10 10 10 9 9 9 8 7 7 8 8 7 7 7 7 7 7 6 6 6 6 6 6 6 5 5 4 3 3 4 4 5 6 6 7 8 7 8 8 10 10 10 10 11
11 10 11 12 13 12 12 12 12 12 11 10 9 8 7 7 8 8 9 9 9 9 9 9 9 8 8 8 8 8 7 7 7 7 7 7 7 7 7 7 7 7 7 7 6 5 4 3 3 4 4 4 4 4 5 6 7 8 8 9 10 10 9
12 11 11 13 14 15 14 12 12 13 13 11 10 9 8 7 8 8 8 8 8 9 9 9 9 8 8 8 8 7 7 7 7 7 7 7 7 7 7 7 7 7 8 7 7 7 5 3 2 3 3 2 2 3 4 4 6 7 6 7 8 9 8
15 13 13 15 15 16 16 14 14 15 15 13 11 10 9 8 8 8 8 8 8 8 8 8 9 9 8 8 7 7 7 6 7 7 7 7 7 7 7 7 7 7 7 7 7 7 6 4 1 1 1 1 1 1 3 3 3 5 5 5 7 7 7
16 13 13 15 16 16 17 17 17 16 15 14 13 11 10 10 9 9 9 8 8 7 7 7 8 8 8 8 7 7 6 5 6 6 6 7 7 6 7 7 7 7 7 6 7 6 6 4 2 0 2 2 2 2 1 3 3 4 5 5 6 6 6
14 11 12 15 16 17 17 17 17 15 14 14 14 13 11 11 10 9 9 9 8 8 7 7 7 7 7 7 6 6 5 5 5 5 5 5 5 6 6 6 6 6 6 5 5 5 5 5 3 2 1 2 1 2 0 3 3 3 4 5 5 5 5
12 10 12 15 16 17 17 16 16 15 13 13 14 13 12 11 10 10 10 9 9 8 7 7 6 6 6 5 5 5 4 4 4 5 5 4 4 4 4 5 5 5 4 4 5 5 5 5 4 4 3 2 2 1 0 2 4 5 4 4 5 5 5
12 10 12 15 16 16 16 15 15 15 14 14 14 13 12 11 11 11 10 10 9 9 8 7 6 5 5 5 4 4 4 3 3 4 4 3 4 3 3 3 4 3 3 3 3 3 4 4 4 4 4 4 4 3 2 3 6 7 6 4 4 4 3
13 11 12 15 16 15 15 15 15 15 15 14 14 14 13 12 11 10 10 10 9 8 8 7 6 5 5 5 4 3 3 2 2 2 2 2 2 2 2 2 2 2 2 2 1 1 2 2 2 3 4 4 5 4 3 4 6 7 6 5 4 4 3
13 13 14 15 15 15 15 14 14 15 14 14 13 13 13 13 12 11 10 10 9 8 7 7 6 5 5 4 3 2 2 2 1 2 1 1 2 2 1 1 1 1 1 1 0 0 1 1 1 2 3 3 4 5 4 3 4 5 6 6 5 5 4
14 14 14 14 15 15 14 14 14 14 14 13 13 12 13 13 12 12 11 11 10 10 9 8 6 5 5 4 2 2 2 2 2 2 2 2 2 2 2 2 2 2 2 2 2 2 1 2 2 2 3 3 4 5 4 3 2 2 4 5 4 4 4
13 14 13 13 14 15 15 14 14 14 14 14 13 12 12 12 12 11 11 11 11 10 9 9 7 7 6 4 3 3 4 4 4 4 4 3 3 3 3 4 4 4 4 4 4 3 2 3 3 2 3 4 5 5 4 3 2 2 3 4 5 4 4
10 11 11 11 12 14 14 14 14 14 14 13 13 12 12 12 11 10 10 9 9 9 8 7 7 7 6 5 4 4 4 5 5 5 5 4 4 4 5 6 6 5 6 6 5 5 4 4 5 5 5 5 4 5 4 4 3 3 3 3 4 4 4
8 9 9 10 10 11 12 13 14 14 13 13 12 12 11 11 11 10 9 9 8 8 7 6 6 6 5 5 5 4 4 5 5 5 6 5 4 4 4 5 6 7 8 7 6 7 6 6 7 7 6 6 5 5 6 6 5 5 4 4 4 4 4
11 11 10 10 10 10 11 12 13 12 12 11 10 10 10 10 9 8 9 8 7 7 6 6 5 5 5 5 4 4 3 4 4 5 5 4 3 4 5 6 6 6 7 7 7 8 7 7 7 7 8 8 7 7 8 7 7 7 6 6 6 6 6
11 10 8 8 9 10 10 11 11 10 9 7 7 7 7 8 8 7 7 7 6 6 5 5 6 6 6 4 3 3 3 4 4 4 4 4 4 6 8 8 7 7 8 9 10 10 10 11 11 9 9 11 10 8 8 8 8 9 8 9 9 7 8
8 7 7 7 9 10 10 10 10 10 9 8 7 7 6 6 7 7 7 6 6 5 4 5 6 6 5 4 3 2 3 3 3 3 4 4 4 5 7 7 7 8 9 9 11 12 11 14 17 15 12 11 10 10 10 10 11 10 9 9 9 8 8
6 6 7 7 8 8 8 9 9 9 9 8 8 9 8 5 5 5 6 6 5 4 4 4 4 3 3 3 3 3 2 1 1 2 2 3 3 4 4 3 4 5 5 5 8 9 9 12 15 17 17 16 14 13 12 12 11 10 9 8 6 5 6
4 4 5 5 5 5 5 6 7 7 7 6 6 6 6 4 4 4 5 6 5 6 6 7 7 6 5 4 4 3 1 0 1 1 1 1 1 2 2 1 1 1 2 3 5 6 7 8 9 12 15 18 18 17 16 15 12 8 6 6 5 5 5
4 4 4 4 5 5 5 5 6 7 7 6 5 5 4 5 6 6 7 8 8 9 10 9 8 6 5 4 3 3 2 1 0 0 1 1 1 1 1 2 2 1 2 2 3 3 5 6 7 8 11 14 17 18 18 17 16 12 7 6 6 6 5
5 5 5 5 5 7 7 7 7 7 7 8 8 7 7 7 8 9 9 10 9 9 9 8 7 6 5 3 2 2 2 1 1 0 0 1 2 2 2 3 3 3 2 1 1 2 3 4 5 5 5 8 10 11 12 12 12 10 8 6 4 4 5
6 6 6 6 7 8 8 8 9 8 8 9 10 10 9 10 10 9 9 9 9 9 9 8 7 6 5 4 3 3 2 2 2 1 1 0 1 2 2 3 4 3 1 1 2 2 1 2 2 2 4 6 6 7 9 10 9 7 6 5 3 2 4
8 8 8 8 8 9 9 9 9 9 9 10 10 10 10 10 9 9 8 8 8 9 9 8 7 7 6 5 5 4 2 2 3 3 2 2 2 1 1 1 1 1 3 3 2 2 1 3 3 4 6 7 7 7 9 10 9 8 7 6 5 5 7
9 9 9 8 8 9 9 9 9 9 9 9 9 9 9 9 8 8 8 7 7 8 9 8 7 6 6 6 5 3 1 2 3 3 3 3 3 2 3 3 3 4 5 5 5 5 3 3 4 4 5 6 6 6 6 7 7 7 7 8 8 9 9
7 7 7 8 8 8 8 9 9 9 9 9 9 9 9 8 8 8 7 7 7 8 8 8 6 6 5 6 5 2 0 2 3 3 4 4 4 4 5 6 5 5 4 5 5 5 5 4 3 4 4 5 5 4 4 4 5 6 8 8 9 10 11
4 6 7 7 8 8 9 9 9 9 8 9 9 9 8 8 8 7 7 8 8 7 8 8 7 6 5 5 5 2 1 1 2 2 3 4 6 6 6 5 4 4 4 4 4 4 5 4 2 3 3 5 5 3 2 2 2 4 6 7 8 9 11
7 8 9 9 10 10 10 12 12 10 10 9 9 8 8 7 7 7 7 9 8 7 7 8 7 6 5 5 5 2 1 1 1 1 2 4 5 7 6 5 5 5 4 4 5 4 5 5 3 2 1 3 3 2 1 2 4 5 5 7 8 9 9
8 8 8 9 10 10 11 12 13 12 11 10 9 8 8 7 7 7 8 8 8 8 8 8 7 6 6 5 4 3 1 1 1 1 1 2 4 6 7 7 7 6 5 4 4 3 3 4 2 1 0 1 3 3 2 3 6 8 7 7 8 9 9
9 9 9 8 10 11 11 11 12 12 11 11 11 11 10 9 9 9 9 8 8 9 10 9 8 7 6 5 4 2 1 1 2 2 2 2 2 4 7 7 7 7 6 4 3 2 1 1 1 2 2 2 3 4 4 3 4 6 7 7 8 9 10
9 11 11 11 11 12 12 12 13 13 13 12 13 13 12 11 10 10 10 10 9 9 10 9 8 6 5 4 4 4 4 5 5 3 3 3 3 4 7 8 8 7 5 3 2 1 0 1 2 2 2 3 4 5 4 3 5 6 7 8 9 9 10
9 11 13 14 15 14 13 14 15 15 14 14 14 13 13 13 12 12 12 12 11 10 9 8 7 6 4 4 5 6 7 7 8 6 3 2 4 7 8 8 8 7 5 4 2 1 0 1 2 2 3 5 5 5 3 4 5 6 7 8 8 9 9
Wind_Direction
139 135 131 129 126 127 126 122 120 113 103 96 91 87 80 73 66 64 63 63 65 65 65 62 52 45 47 48 41 34 34 39 33 9 355 312 197 164 155 186 226 264 284 286 288 286 142 140 122 96 76 60 62 64 58 54 57 65 66 64 65 62 58
137 139 136 136 135 134 131 124 121 114 104 99 95 90 81 71 66 65 68 67 65 61 61 65 60 52 55 56 53 48 45 43 36 33 40 49 60 104 146 183 213 234 237 235 262 260 165 142 187 146 114 97 80 69 65 67 65 67 69 68 70 75 82
143 144 140 140 141 139 137 132 125 119 112 108 101 92 79 70 69 70 72 70 66 63 63 70 75 70 64 62 60 53 43 37 34 36 39 49 62 68 80 119 164 181 199 169 177 227 187 153 166 152 139 126 99 83 78 75 73 73 70 67 68 72 80
151 149 145 146 148 146 144 140 131 123 118 116 109 95 80 73 74 75 75 73 68 65 64 68 74 75 75 71 65 55 46 46 49 53 51 50 59 62 59 57 40 30 16 17 40 356 214 163 143 135 129 122 111 102 96 89 82 77 71 67 65 66 73
158 153 150 151 152 152 150 144 135 128 124 122 115 101 88 82 81 78 76 75 71 68 67 67 69 72 75 72 63 58 59 62 61 65 68 59 58 60 51 43 39 38 31 20 22 16 346 140 134 133 127 120 113 108 107 103 90 79 72 70 67 67 72
164 155 151 152 153 154 152 145 138 133 131 128 121 111 99 92 88 83 79 77 74 71 72 72 70 69 70 70 70 68 67 63 60 60 63 57 51 51 47 42 39 39 40 29 21 25 38 109 130 136 127 119 115 116 119 113 97 84 75 69 68 69 70
169 159 154 154 155 154 151 146 138 133 133 130 126 120 111 103 97 93 89 84 79 76 75 75 73 69 70 75 76 74 68 61 59 59 59 56 52 47 43 44 43 38 37 32 25 29 50 100 132 141 128 119 120 125 124 114 100 88 76 68 65 68 69
170 161 156 155 156 153 149 145 139 135 135 132 132 130 124 117 108 104 100 92 86 80 76 74 73 71 70 76 76 71 69 63 61 62 61 59 56 53 50 47 47 43 35 32 29 27 33 61 113 135 134 129 126 123 120 110 97 86 83 78 68 66 71
178 167 161 161 160 155 151 147 144 142 138 134 137 138 135 130 122 116 109 102 96 88 84 80 78 78 74 75 75 70 69 67 67 67 67 68 63 58 55 50 51 50 39 36 36 33 31 36 89 136 152 159 144 132 130 121 103 90 84 84 79 71 71
191 182 173 170 164 158 156 152 151 148 140 137 142 143 141 137 131 127 120 115 110 101 96 90 86 87 82 80 79 75 72 71 70 70 71 75 72 67 64 58 60 58 48 43 43 41 41 38 59 163 212 259 244 176 154 133 110 96 78 69 80 80 77
199 189 177 172 165 161 161 157 156 151 142 141 145 146 146 143 139 136 129 124 119 112 108 102 97 95 90 90 89 84 83 79 73 72 73 75 74 74 74 71 72 70 60 56 54 51 51 50 53 200 253 275 295 293 181 140 108 93 87 72 70 76 82
199 187 178 176 170 166 165 162 159 154 148 147 148 150 152 151 148 142 133 129 124 122 121 114 109 103 99 100 99 95 92 90 85 80 76 73 71 73 77 77 78 76 70 66 63 59 59 58 55 68 190 226 265 324 275 153 130 103 102 98 87 81 83
193 183 186 185 177 171 171 168 164 161 157 154 153 155 157 158 157 150 143 138 132 131 129 126 122 114 110 109 106 105 103 99 96 90 83 79 77 78 79 76 75 73 68 70 72 69 67 62 58 66 90 132 144 151 183 141 127 118 112 115 116 108 98
188 185 193 191 182 179 178 173 168 166 164 163 160 159 159 161 162 157 150 146 141 139 137 136 135 129 124 119 114 114 115 114 106 94 93 92 86 82 81 84 84 75 62 67 80 87 84 80 77 79 90 112 125 136 146 132 129 129 128 131 135 125 119
185 187 192 190 185 185 183 177 171 168 169 169 167 164 161 161 166 164 157 152 150 149 147 146 143 137 132 128 127 127 125 129 116 104 109 116 114 103 88 96 101 88 75 73 80 94 97 108 112 101 99 108 118 123 129 136 139 142 143 147 153 141 131
184 187 188 188 187 187 184 180 174 170 170 171 169 168 167 166 170 171 166 161 157 156 156 154 150 146 141 136 139 146 149 153 154 152 162 164 152 139 139 174 144 133 150 146 208 304 116 224 233 110 107 108 119 122 122 134 146 152 152 155 170 168 145
185 186 187 189 187 185 183 181 180 176 173 173 172 172 173 176 178 178 177 174 170 169 170 170 170 168 166 165 176 204 208 207 208 214 226 233 226 208 206 223 214 202 215 214 223 238 218 226 231 157 148 141 139 139 136 144 164 178 171 163 170 173 153
187 188 188 190 187 183 182 183 184 183 180 178 178 178 180 184 186 187 188 184 179 181 182 184 186 184 186 191 203 224 232 229 229 234 237 233 236 238 233 239 238 224 229 233 229 237 245 254 259 226 198 184 169 164 172 189 195 207 198 172 164 170 168
188 188 187 192 190 183 182 184 186 187 185 182 181 183 186 190 194 200 202 195 189 188 187 189 191 194 202 204 203 214 221 226 234 237 232 229 239 246 242 242 243 237 237 238 234 232 232 242 258 254 242 234 208 187 197 212 209 221 231 199 182 185 185
179 186 192 196 196 189 185 186 190 190 186 183 183 187 192 196 199 206 211 207 199 194 193 197 203 210 218 211 202 207 218 230 238 234 232 239 249 254 254 249 245 241 242 244 241 240 236 230 239 248 248 252 249 226 222 228 229 236 237 222 220 225 218
188 199 199 193 194 197 191 189 192 192 188 187 192 195 198 199 198 203 208 208 204 199 200 208 210 214 221 218 210 208 217 232 235 233 236 235 226 232 240 243 245 247 250 248 241 241 244 231 229 237 235 236 244 240 237 241 241 243 243 238 247 257 254
198 203 194 189 194 199 197 191 187 182 177 179 191 201 202 197 196 202 206 205 205 202 198 203 209 213 216 215 213 209 216 225 228 237 240 223 224 247 251 244 240 240 241 242 244 247 247 237 233 236 231 228 232 237 247 258 254 252 252 252 258 259 256
182 180 179 192 199 195 192 185 177 175 176 182 197 218 229 211 198 203 205 202 199 190 189 204 215 221 218 207 197 187 201 214 215 224 228 214 223 252 256 244 236 241 247 256 264 266 259 245 240 239 232 223 220 220 232 250 256 256 258 264 268 260 259
153 163 172 187 194 191 187 183 182 190 196 195 205 221 230 221 204 203 201 196 187 173 173 184 187 187 181 172 162 160 175 186 171 187 199 191 202 222 238 237 234 244 254 267 276 278 272 257 246 240 236 232 231 230 232 242 250 252 253 262 273 267 266
159 165 161 168 182 190 196 191 186 189 190 184 188 201 204 191 181 180 169 162 151 138 135 131 126 123 122 122 121 121 135 169 162 202 224 196 208 215 236 263 255 216 227 268 285 282 276 270 255 242 237 235 237 238 238 240 245 246 241 246 259 260 257
173 182 174 171 189 206 217 206 184 175 171 164 160 167 170 161 156 147 137 133 124 118 118 115 110 109 107 104 100 99 99 103 129 253 293 297 294 298 293 298 300 252 253 295 309 285 278 281 271 254 240 232 234 238 238 237 239 239 235 241 255 251 238
153 170 174 170 178 191 196 186 175 168 160 149 144 148 153 147 138 130 127 125 118 114 113 111 108 106 101 94 90 91 85 66 71 74 297 281 282 287 280 277 282 282 290 322 312 281 285 285 278 263 233 216 219 225 225 222 226 232 231 235 251 245 236
127 137 150 153 153 158 161 159 157 154 148 142 141 144 144 136 128 125 125 124 119 116 116 113 107 99 90 84 78 77 76 76 85 92 84 63 285 283 279 276 279 293 345 2 298 287 253 237 236 193 167 164 163 176 190 195 200 204 202 205 217 229 245
129 130 134 138 138 140 141 142 144 145 144 143 142 142 139 135 132 131 130 130 125 120 118 114 104 94 87 82 80 84 94 102 100 98 89 82 73 38 9 340 310 49 80 62 14 9 113 181 177 161 158 155 151 168 192 199 200 204 212 226 243 251 258
142 144 146 147 145 143 144 146 148 152 153 152 151 149 145 144 144 142 140 138 133 127 127 121 108 97 90 86 88 95 107 105 100 94 91 84 76 93 116 109 96 94 87 71 50 43 71 128 157 165 164 161 156 159 182 200 211 226 242 256 264 266 270
152 156 161 160 154 155 160 162 163 165 167 166 164 161 158 155 153 151 150 149 145 143 145 142 128 114 104 97 97 106 130 109 109 105 107 106 100 110 125 122 110 105 99 83 69 67 85 113 173 200 188 192 195 171 168 201 236 259 270 277 283 286 290
212 203 201 193 188 189 183 174 171 174 178 179 175 172 172 169 164 162 161 160 158 156 156 156 145 129 121 108 99 94 284 126 121 132 136 129 121 120 126 128 124 124 119 108 105 111 121 131 177 218 223 237 238 213 169 193 248 277 290 296 297 298 301
249 241 233 222 218 212 194 181 181 185 190 192 188 186 188 185 180 177 172 169 168 165 163 162 154 143 136 124 107 94 300 271 138 147 163 153 140 129 119 117 126 131 131 137 140 145 156 161 149 133 199 255 243 210 189 275 286 294 296 291 287 285 286
247 244 238 220 210 204 192 187 189 191 195 194 189 190 196 199 196 187 179 178 178 175 171 167 163 158 152 147 133 106 25 319 285 261 211 184 168 144 125 121 136 142 138 144 147 145 167 182 175 152 192 249 241 251 275 290 298 304 296 282 281 282 280
246 243 237 221 209 204 202 202 201 202 203 197 191 192 196 199 199 190 184 183 180 180 182 180 177 173 166 169 169 152 157 228 233 254 246 222 202 153 133 136 152 155 154 162 166 164 185 228 271 278 291 291 281 299 318 304 288 295 289 279 283 285 283
246 239 235 232 227 221 218 216 213 212 215 215 211 206 199 197 195 188 186 187 183 182 186 187 186 184 186 198 201 198 209 207 195 208 250 250 219 158 143 158 172 169 170 183 179 168 208 330 331 324 329 327 324 335 340 300 275 284 287 285 286 284 282
250 240 236 234 233 231 229 225 221 220 222 223 220 211 202 199 198 194 190 187 182 180 183 189 198 204 212 225 224 219 220 210 195 198 234 238 180 158 157 174 183 176 175 185 184 171 162 358 355 353 346 339 343 349 327 283 281 286 286 283 283 284 287